User: anonymous   Login
Location: Newark
(34.1333°N, 7.9667°W)
Time: 10:28:36
(UTC+00:00)
Language:

ISS - Orbit

View from above orbital plane
View from above orbital plane
View from above satellite
View from above satellite

Ground track
Ground track

The orbit data is extracted from the following two-line orbital elements,

1 25544U 98067A   21290.96791059  .00007152  00000-0  13913-3 0  9995
2 25544  51.6432  95.6210 0004029 117.2302  27.3327 15.48732973307628
Epoch (UTC): 17 October 2021 23:13:47
Eccentricity: 0.0004029
inclination: 51.6432°
perigee height: 417 km
apogee height: 423 km
right ascension of ascending node: 95.6210°
argument of perigee: 117.2302°
revolutions per day: 15.48732973
mean anomaly at epoch: 27.3327°
orbit number at epoch: 30762

The dashed part of the orbit path shows where the satellite is in the earth's shadow,  

DLR